Weather History for Westerly, RI

Change the Weather History Date:

Tuesday, September 10, 2013

  Actual Average (KGON) Record (KGON)
Temperature  
Mean Temperature 68 °F -  
Max Temperature 73 °F 75 °F 88 °F (1961)
Min Temperature 64 °F 55 °F 33 °F (1996)
Cooling Degree Days 4    
Growing Degree Days 18 (Base 50)    
Moisture  
Dew Point 64 °F    
Average Humidity 85    
Maximum Humidity 97    
Minimum Humidity 73    
Precipitation  
Precipitation 0.00 in - - ()
Sea Level Pressure  
Sea Level Pressure 30.13 in    
Wind  
Wind Speed 8 mph (SSW)    
Max Wind Speed 20 mph    
Max Gust Speed 28 mph    
Visibility 9 miles    
Events Rain    
Averages and records for this station are not official NWS values.
T = Trace of Precipitation, MM = Missing Value Source: NWS Daily Summary

Daily Weather History Graph

Daily Weather History Graph

Search for Another Location

Airport:

Trip Planner

Search our weather history database for the weather conditions in past years. The results will help you decide how hot, cold, wet, or windy it might be!

Date:

Astronomy

Sep. 10, 2013 Rise Set
Actual Time 6:22 AM EDT 7:04 PM EDT
Civil Twilight 5:54 AM EDT 7:32 PM EDT
Nautical Twilight 5:21 AM EDT 8:05 PM EDT
Astronomical Twilight 4:47 AM EDT 8:39 PM EDT
Moon 11:49 AM EDT (9/10) 10:01 PM EDT (9/10)
Length of Visible Light 13h 37m
Length of Day
12h 41m
Waxing Crescent, 28% of the Moon is Illuminated
Sep 10
Waxing Crescent
Sep 12
First Quarter
Sep 19
Full
Sep 26
Last Quarter
Oct 4
New

Hourly Weather History & Observations

Time (EDT) Temp. Dew Point Humidity Pressure Visibility Wind Dir Wind Speed Gust Speed Precip Events Conditions
12:53 AM 64.0 °F 55.9 °F 75% 30.19 in 10.0 mi SSW 6.9 mph - N/A   Clear
1:53 AM 64.9 °F 55.9 °F 73% 30.17 in 10.0 mi South 8.1 mph - N/A   Clear
2:53 AM 64.9 °F 57.0 °F 75% 30.18 in 10.0 mi SSW 6.9 mph - N/A   Partly Cloudy
3:53 AM 66.0 °F 57.0 °F 73% 30.17 in 10.0 mi SSW 5.8 mph - N/A   Overcast
4:53 AM 66.0 °F 57.9 °F 75% 30.17 in 10.0 mi SSW 5.8 mph - N/A   Overcast
5:53 AM 66.9 °F 59.0 °F 76% 30.17 in 10.0 mi SSW 6.9 mph - N/A   Overcast
6:53 AM 66.0 °F 61.0 °F 84% 30.18 in 10.0 mi SSW 6.9 mph - 0.00 in   Overcast
7:19 AM 66.2 °F 62.6 °F 88% 30.18 in 10.0 mi South 8.1 mph - 0.00 in Rain Light Rain
7:53 AM 66.0 °F 62.1 °F 87% 30.18 in 10.0 mi SSW 9.2 mph - 0.00 in   Overcast
8:53 AM 66.0 °F 62.1 °F 87% 30.18 in 10.0 mi SSW 10.4 mph - N/A   Overcast
9:53 AM 68.0 °F 63.0 °F 84% 30.18 in 10.0 mi SSW 6.9 mph - N/A   Overcast
10:53 AM 69.1 °F 64.0 °F 84% 30.18 in 10.0 mi SW 4.6 mph - N/A   Overcast
11:53 AM 70.0 °F 64.0 °F 81% 30.17 in 10.0 mi SSW 11.5 mph - N/A   Overcast
12:53 PM 71.1 °F 64.9 °F 81% 30.13 in 10.0 mi SSW 13.8 mph 24.2 mph 0.00 in   Overcast
1:53 PM 72.0 °F 66.0 °F 81% 30.06 in 10.0 mi South 19.6 mph 27.6 mph N/A   Mostly Cloudy
2:07 PM 71.6 °F 66.2 °F 83% 30.04 in 10.0 mi SSW 18.4 mph 27.6 mph N/A   Scattered Clouds
2:38 PM 71.6 °F 66.2 °F 83% 30.13 in 10.0 mi WSW 8.1 mph 16.1 mph N/A   Mostly Cloudy
2:53 PM 71.1 °F 66.9 °F 87% 30.12 in 10.0 mi SW 5.8 mph - N/A   Overcast
3:53 PM 73.0 °F 66.9 °F 81% 30.10 in 10.0 mi SW 13.8 mph 20.7 mph N/A   Overcast
4:53 PM 73.0 °F 68.0 °F 84% 30.09 in 10.0 mi SSW 10.4 mph - N/A   Overcast
5:53 PM 72.0 °F 68.0 °F 87% 30.09 in 10.0 mi SSW 8.1 mph - N/A   Mostly Cloudy
6:02 PM 73.4 °F 68.0 °F 83% 30.10 in 10.0 mi SSW 8.1 mph - N/A   Scattered Clouds
6:53 PM 71.1 °F 68.0 °F 90% 30.10 in 10.0 mi South 6.9 mph - N/A   Partly Cloudy
7:53 PM 70.0 °F 66.9 °F 90% 30.10 in 9.0 mi SSW 4.6 mph - N/A   Clear
8:53 PM 69.1 °F 68.0 °F 96% 30.11 in 8.0 mi SSW 6.9 mph - N/A   Clear
9:01 PM 69.8 °F 68.0 °F 94% 30.11 in 7.0 mi SW 6.9 mph - N/A   Partly Cloudy
9:21 PM 69.8 °F 68.0 °F 94% 30.11 in 7.0 mi SSW 6.9 mph - N/A   Mostly Cloudy
9:53 PM 69.1 °F 68.0 °F 96% 30.12 in 7.0 mi SSW 5.8 mph - N/A   Overcast
10:53 PM 69.1 °F 68.0 °F 96% 30.12 in 6.0 mi SSW 4.6 mph - N/A   Overcast
11:53 PM 70.0 °F 69.1 °F 97% 30.12 in 6.0 mi SW 5.8 mph - N/A   Overcast